This is the latest recevied weather packets stored in our database for station/object SA3ARQ-13. If no packets are shown the sender has not sent any weather packets the latest 10 day(s).
| Time | Temp. | Humidity | Pressure | Rain* | Wind** | Luminosity | Snow |
|---|---|---|---|---|---|---|---|
| 1777412208 | 8.89° C | 43% | 1027 hPa | - | - | - | - |
| 1777411308 | 8.89° C | 43% | 1027 hPa | - | - | - | - |
| 1777410408 | 8.89° C | 42% | 1027 hPa | - | - | - | - |
| 1777409508 | 9.44° C | 42% | 1027 hPa | - | - | - | - |
| 1777408608 | 10° C | 42% | 1026.9 hPa | - | - | - | - |
| 1777407708 | 10° C | 42% | 1027 hPa | - | - | - | - |
| 1777406808 | 10.56° C | 42% | 1026.9 hPa | - | - | - | - |
| 1777405908 | 10.56° C | 41% | 1026.9 hPa | - | - | - | - |
| 1777405008 | 11.11° C | 42% | 1026.7 hPa | - | - | - | - |
| 1777404108 | 11.11° C | 41% | 1026.8 hPa | - | - | - | - |
| 1777403208 | 11.67° C | 42% | 1026.8 hPa | - | - | - | - |
| 1777402308 | 11.67° C | 42% | 1026.7 hPa | - | - | - | - |
| 1777401408 | 11.67° C | 42% | 1026.5 hPa | - | - | - | - |
| 1777400507 | 12.22° C | 42% | 1026.5 hPa | - | - | - | - |
| 1777399608 | 12.22° C | 42% | 1026.4 hPa | - | - | - | - |
| 1777398707 | 12.22° C | 42% | 1026.3 hPa | - | - | - | - |
| 1777397807 | 12.78° C | 42% | 1026.2 hPa | - | - | - | - |
| 1777396907 | 12.78° C | 43% | 1026.3 hPa | - | - | - | - |
| 1777396007 | 12.78° C | 43% | 1026.1 hPa | - | - | - | - |
| 1777395108 | 12.78° C | 41% | 1026.1 hPa | - | - | - | - |
| 1777394207 | 13.33° C | 42% | 1026.2 hPa | - | - | - | - |
| 1777393308 | 12.78° C | 42% | 1026.2 hPa | - | - | - | - |
| 1777392407 | 13.33° C | 41% | 1026.1 hPa | - | - | - | - |
| 1777391507 | 12.78° C | 41% | 1026.1 hPa | - | - | - | - |
| 1777390607 | 12.78° C | 40% | 1026.2 hPa | - | - | - | - |
* Rain since midnight (hover to see other rain measurements)
** Current wind speed in m/s (hover to see current wind gust speed)